Погода в Посёлке Тимирязева

Россия / Республика Адыгея     44°28′11″N   40°10′07″E
темп.,
°C
ветер,
м/с
пор.,
м/с
влажн.,
%
обл.,
%
осадки,
мм/ч
давл.,
гПа
погр.,
м
12 апреля, пн
пн1200:00+7зюз1295100 0.0 101962
03:00+6зюз1397100 0.0 1020190
06:00+6св0199100 0.9 102048
09:00+7св1198100 2.2 1021111
12:00+7всв1197100 5.4 1022159
15:00+8в0197100 6.4 1022101
18:00+8юв1196100 0.4 102258
21:00+7ююз1197100 0.5 102314
13 апреля, вт
вт1300:00+7зсз0098100 0.5 102317
03:00+7сз0199100 1.4 102398
06:00+7сз1399100 0.7 1023289
09:00+7с1199100 1.6 1023151
12:00+8св1297100 0.1 1022268
15:00+8св1297100 0.4 1023186
18:00+8всв129598 0.0 1022211
21:00+7в1398100 0.0 102189
14 апреля, ср
ср1400:00+6в1197100 0.0 102017
03:00+7юв1199100 1.1 101921
06:00+7зюз1199100 2.3 101928
09:00+7з1299100 5.9 1019109
12:00+8зюз1397100 1.3 1019202
15:00+11сз2386100 1.5 1018562
18:00+10сз129120 0.2 1018205
21:00+7юв11972 0.2 101812
15 апреля, чт
чт1500:00+6ююв229657 0.0 101723
03:00+5ююв22941 0.0 101721
06:00+5юв22910 0.0 101727
09:00+13вюв11650 0.0 1016351
12:00+17св22435 0.0 10141322
15:00+18всв234698 0.0 10141879
18:00+13юв118217 0.3 101560
21:00+10ююз2288100 0.5 101527
16 апреля, пт
пт1600:00+9зюз2893100 0.1 1016340
03:00+9ююз1297100 1.6 101666
06:00+8с119778 0.2 101718
09:00+11св1189100 0.2 1018411
12:00+13св127598 0.8 1018667
15:00+13св227861 3.0 1017814
18:00+10ссз2493100 3.6 1018230
21:00+8юз0198100 9.1 1019198